KT4FD Weather Reports


Display with metric or nautical units.
time (UTC)temp
F
wind
direction
speed
MPH
gust
MPH
rain 1hr
in
rain 24hr
in
rain mn
in
humidity
%
barometer
mb
20260508045002 51 306 0.0 3.0 0.00 1.03 0.00 86 1017.3
20260508044002 50 306 1.0 3.0 0.00 1.04 0.00 85 1017.1
20260508043002 50 305 0.0 2.0 0.00 1.05 0.00 85 1017.1
20260508042003 50 305 1.0 2.0 0.00 1.05 0.00 85 1017.1
20260508041003 50 305 0.0 1.0 0.00 1.05 0.00 85 1016.9
20260508040003 51 305 0.0 1.0 0.00 1.05 0.00 85 1016.8
20260508035003 51 305 0.0 1.0 0.00 1.05 1.05 85 1016.9
20260508012002 56 305 0.0 0.0 0.00 1.26 1.05 83 1015.8
20260508011003 56 305 0.0 2.0 0.00 1.26 1.05 83 1015.8
20260508010003 57 305 0.0 2.0 0.00 1.26 1.05 82 1015.5
20260508005002 58 305 0.0 3.0 0.00 1.27 1.05 82 1015.4
20260508004002 58 305 1.0 2.0 0.00 1.33 1.05 81 1015.4
20260508002002 60 305 0.0 0.0 0.00 1.42 1.05 77 1015.1
20260508001002 60 305 0.0 2.0 0.00 1.43 1.05 76 1015.0
20260508000003 60 305 0.0 3.0 0.00 1.44 1.05 76 1014.9
20260507235003 61 302 2.0 8.0 0.00 1.61 1.05 75 1015.0
20260507234003 61 273 3.0 6.0 0.00 1.61 1.05 75 1014.7
20260507233003 61 340 2.0 3.0 0.00 1.61 1.05 76 1014.6
20260507232002 61 341 2.0 8.0 0.00 1.61 1.05 75 1014.6
20260507231002 61 314 5.0 12.0 0.00 1.61 1.05 74 1014.6
20260507230003 61 321 8.0 12.0 0.00 1.62 1.05 74 1014.6
20260507225003 62 291 5.0 9.0 0.00 1.62 1.05 75 1014.5
20260507224003 62 324 5.0 12.0 0.00 1.62 1.05 75 1014.4
20260507223002 61 344 7.0 14.0 0.00 1.62 1.05 75 1014.3
20260507202002 69 253 7.0 20.0 0.00 1.67 1.05 69 1013.0
20260507201003 69 310 9.0 16.0 0.00 1.67 1.05 68 1012.9
20260507200003 68 297 8.0 14.0 0.00 1.67 1.05 72 1013.1
20260507195002 68 293 12.0 20.0 0.00 1.67 1.05 71 1013.1
20260507194003 67 235 6.0 15.0 0.00 1.67 1.05 75 1013.2
20260507193003 68 335 5.0 15.0 0.00 1.67 1.05 74 1013.1
20260507171003 66 264 10.0 16.0 0.00 1.67 1.05 78 1013.7
20260507170002 66 316 3.0 12.0 0.00 1.67 1.05 80 1013.5
20260507165003 67 325 6.0 15.0 0.00 1.67 1.05 80 1013.5
20260507164002 67 309 5.0 12.0 0.00 1.67 1.05 79 1013.3
20260507163003 67 304 5.0 12.0 0.00 1.67 1.05 79 1013.2
20260507162002 67 252 5.0 10.0 0.00 1.67 1.05 81 1013.0
20260507161003 67 247 5.0 8.0 0.00 1.67 1.05 81 1013.0
20260507150003 64 243 5.0 8.0 0.00 1.72 1.05 85 1013.2
20260507145003 64 254 4.0 9.0 0.00 1.72 1.05 85 1013.1
20260507144002 64 252 6.0 15.0 0.00 1.72 1.05 85 1013.4
20260507143003 64 252 5.0 12.0 0.00 1.72 1.05 87 1013.3
20260507142002 63 298 6.0 13.0 0.00 1.75 1.05 87 1013.5
20260507141002 63 262 3.0 10.0 0.00 1.75 1.05 87 1013.7
20260507140003 63 219 4.0 9.0 0.00 1.75 1.05 87 1013.6
20260507110003 60 325 0.0 1.0 0.30 1.56 0.86 87 1011.9
20260507105003 60 325 0.0 2.0 0.34 1.56 0.86 87 1011.9
20260507104003 60 325 0.0 2.0 0.39 1.56 0.86 87 1012.4
20260507103003 60 325 1.0 2.0 0.41 1.56 0.86 87 1012.4
20260507102003 60 325 1.0 12.0 0.39 1.54 0.83 87 1012.8
20260507101002 60 302 7.0 12.0 0.13 1.27 0.57 87 1013.7
20260507100003 60 272 0.0 3.0 0.13 1.26 0.56 87 1011.6
20260507095003 60 271 0.0 0.0 0.10 1.22 0.52 87 1012.2
20260507094003 60 271 0.0 3.0 0.07 1.17 0.47 87 1012.6
20260507093002 60 271 0.0 0.0 0.06 1.15 0.45 87 1012.4
20260507092003 60 271 0.0 0.0 0.07 1.15 0.45 87 1012.5
20260507091003 60 271 0.0 0.0 0.10 1.14 0.44 87 1012.1
20260507090005 60 271 0.0 0.0 0.11 1.13 0.42 87 1012.3
20260507085003 60 271 0.0 0.0 0.16 1.13 0.42 87 1012.9
20260507084003 60 271 0.0 0.0 0.13 1.10 0.40 87 1013.0
20260507083003 60 271 0.0 0.0 0.15 1.09 0.39 87 1012.6
20260507082003 61 271 0.0 0.0 0.21 1.08 0.38 87 1012.5
20260507081003 61 271 1.0 3.0 0.21 1.04 0.34 87 1012.6
20260507080003 61 271 0.0 1.0 0.21 1.02 0.31 87 1012.6
20260507075003 61 271 0.0 3.0 0.17 0.97 0.27 87 1012.8